Regional Weather Roundup
Issued by NWS

Current Version | Previous Version | Text Only | Print | Product List | Glossary On
Versions: 1 2 3 4 5 6 7 8 9 10 11 12 13 14 15 16 17 18 19 20 21 22 23 24 25 26 27 28 29 30 31 32 33 34 35 36 37 38 39 40 41 42 43 44 45 46 47 48 49 50
000
ASUS43 KTOP 021108
RWRKS

WEATHER ROUNDUP FOR KANSAS
NATIONAL WEATHER SERVICE GOODLAND KS
600 AM CDT TUE JUN 02 2015

NOTE:  "FAIR" INDICATES FEW OR NO CLOUDS BELOW 12,000 FEET WITH NO
SIGNIFICANT WEATHER AND/OR OBSTRUCTIONS TO VISIBILITY.

KSZ001>006-013>018-027>032-041>047-021200-
NORTHWEST KANSAS

CITY           SKY/WX    TMP DP  RH WIND       PRES   REMARKS
GOODLAND       MOCLDY    57  54  89 SE6       29.99S
HAYS           CLOUDY    63  54  72 N10       30.00R
HILL CITY      CLOUDY    64  61  90 SE10      29.96F
RUSSELL        CLOUDY    62  58  86 S9        29.97R
$$

KSZ061>065-074>080-084>089-021200-
SOUTHWEST KANSAS

CITY           SKY/WX    TMP DP  RH WIND       PRES   REMARKS
DODGE CITY     PTCLDY    64  61  90 S18       29.95F
ELKHART          N/A     63  52  67 SW9         N/A
GARDEN CITY    PTCLDY    63  62  97 S13       29.93S
GREAT BEND     MOCLDY    61  57  88 SE16      29.96S
LIBERAL        CLEAR     64  59  82 S9        29.97S
PRATT          MOCLDY    61  59  94 SE9       29.99F
$$

KSZ066>073-081>083-090>101-021200-
SOUTHEAST KANSAS

CITY           SKY/WX    TMP DP  RH WIND       PRES   REMARKS
CHANUTE        MOCLDY    57  55  93 E7        30.06F
COFFEYVILLE    CLOUDY    60  57  89 E5        30.04F
HUTCHINSON     MOCLDY    63  57  81 SE12      29.99F
MEDICINE LODGE   N/A     63  61  93 SE9       29.98F
NEWTON         CLOUDY    61  54  77 SE12      30.04F
PARSONS        MOCLDY    60  57  89 N3        30.07S
WICHITA INTL   CLOUDY    63  58  83 SE9       30.01F
WICHITA JABRA  CLOUDY    61  58  90 SE10      30.02F
WICHITA MCCONL MOCLDY    62  58  87 E9        30.01F
WINFIELD       CLOUDY    62  59  90 E7        30.03F
$$

KSZ007>012-019>026-033>040-048>060-102>105-021200-
NORTHEAST KANSAS

CITY           SKY/WX    TMP DP  RH WIND       PRES   REMARKS
CONCORDIA      CLOUDY    59  55  87 SE13      30.01S
EMPORIA        CLOUDY    57  54  89 SE10      30.06R
LAWRENCE       CLOUDY    58  53  84 SE6       30.09R
MANHATTAN      CLOUDY    59  56  89 VRB6      30.05R
MARYSVILLE     MOCLDY    55  54  94 S9G17     30.04F
OLATHE IND     CLOUDY    57  53  86 SE9       30.10S
OLATHE EXE     MOCLDY    56  53  90 SE7       30.09S
SALINA         MOCLDY    61  57  87 SE10      30.00F
TOPEKA BILLARD CLOUDY    58  55  90 SE8       30.08F
TOPEKA FORBES  CLOUDY    58  55  90 SE8       30.07F
$$



USA.gov is the U.S. government's official web portal to all federal, state and local government web resources and services.